Weather History for KBWD - April, 2013

Change the Weather History Date:

Tuesday, April 23, 2013

  Actual Average (KABI) Record (KABI)
Temperature  
Mean Temperature 54 °F 67 °F  
Max Temperature 66 °F 79 °F 95 °F (1894)
Min Temperature 41 °F 54 °F 37 °F (1907)
Degree Days  
Heating Degree Days 12 2  
Month to date heating degree days 99  
Since 1 July heating degree days 2530  
Cooling Degree Days 0 4  
Month to date cooling degree days 66  
Year to date cooling degree days 100  
Growing Degree Days 4 (Base 50)    
Moisture  
Dew Point 42 °F    
Average Humidity 70    
Maximum Humidity 88    
Minimum Humidity 62    
Precipitation  
Precipitation 0.00 in 0.06 in 2.40 in (2004)
Month to date precipitation 1.15  
Year to date precipitation 5.27  
Sea Level Pressure  
Sea Level Pressure 30.01 in    
Wind  
Wind Speed 11 mph (North)    
Max Wind Speed 21 mph    
Max Gust Speed 29 mph    
Visibility 10 miles    
Events Rain    
T = Trace of Precipitation, MM = Missing Value Source: NWS Daily Summary

Daily Weather History Graph

Daily Weather History Graph

Search for Another Location

Airport or City:

Trip Planner

Search our weather history database for the weather conditions in past years. The results will help you decide how hot, cold, wet, or windy it might be!

Date:

Astronomy

Apr. 23, 2013 Rise Set
Actual Time 6:57 AM CDT 8:10 PM CDT
Civil Twilight 6:32 AM CDT 8:36 PM CDT
Nautical Twilight 6:02 AM CDT 9:06 PM CDT
Astronomical Twilight 5:30 AM CDT 9:37 PM CDT
Moon 6:13 PM CDT (4/23) 5:18 AM CDT (4/23)
Length of Visible Light 14h 03m
Length of Day
13h 12m
Waxing Gibbous, 94% of the Moon is Illuminated
Apr 23
Waxing Gibbous
Apr 25
Full
May 2
Last Quarter
May 9
New
May 17
First Quarter

Hourly Weather History & Observations

Time (CDT) Temp. Windchill Dew Point Humidity Pressure Visibility Wind Dir Wind Speed Gust Speed Precip Events Conditions
12:15 AM 66.2 °F - 55.4 °F 68% 29.84 in 10.0 mi SE 6.9 mph - N/A   Partly Cloudy
12:35 AM 64.4 °F - 55.4 °F 73% 29.84 in 10.0 mi SE 5.8 mph - N/A   Clear
12:55 AM 64.4 °F - 55.4 °F 73% 29.84 in 10.0 mi SE 5.8 mph - N/A   Clear
1:15 AM 64.4 °F - 55.4 °F 73% 29.84 in 10.0 mi SSE 6.9 mph - N/A   Clear
1:35 AM 64.4 °F - 55.4 °F 73% 29.83 in 10.0 mi South 8.1 mph - N/A   Clear
1:55 AM 66.2 °F - 55.4 °F 68% 29.83 in 10.0 mi SSE 10.4 mph - N/A   Clear
2:15 AM 66.2 °F - 55.4 °F 68% 29.83 in 10.0 mi SSE 12.7 mph - N/A   Clear
2:35 AM 66.2 °F - 55.4 °F 68% 29.82 in 10.0 mi SSE 11.5 mph - N/A   Clear
2:55 AM 66.2 °F - 57.2 °F 73% 29.82 in 10.0 mi SSE 9.2 mph - N/A   Clear
3:15 AM 64.4 °F - 57.2 °F 77% 29.80 in 10.0 mi SSE 10.4 mph - N/A   Clear
3:35 AM 64.4 °F - 57.2 °F 77% 29.81 in 10.0 mi SSE 6.9 mph - N/A   Clear
3:55 AM 62.6 °F - 57.2 °F 82% 29.80 in 10.0 mi SSE 6.9 mph - N/A   Clear
4:15 AM 62.6 °F - 57.2 °F 82% 29.80 in 10.0 mi SSE 6.9 mph - N/A   Clear
4:35 AM 62.6 °F - 57.2 °F 82% 29.81 in 10.0 mi SSE 4.6 mph - N/A   Clear
4:55 AM 62.6 °F - 59.0 °F 88% 29.81 in 10.0 mi SE 6.9 mph - N/A   Clear
5:15 AM 62.6 °F - 59.0 °F 88% 29.80 in 10.0 mi SE 5.8 mph - N/A   Partly Cloudy
5:55 AM 62.6 °F - 59.0 °F 88% 29.87 in 10.0 mi NNW 9.2 mph - N/A   Mostly Cloudy
6:15 AM 62.6 °F - 59.0 °F 88% 29.89 in 10.0 mi North 6.9 mph - N/A   Overcast
6:35 AM 64.4 °F - 59.0 °F 83% 29.89 in 10.0 mi Calm Calm - N/A   Overcast
6:55 AM 64.4 °F - 59.0 °F 83% 29.89 in 10.0 mi Calm Calm - N/A   Overcast
7:15 AM 57.2 °F - 46.4 °F 67% 29.93 in 10.0 mi North 16.1 mph 28.8 mph N/A   Overcast
7:35 AM 53.6 °F - 42.8 °F 67% 29.95 in 10.0 mi North 13.8 mph 25.3 mph N/A   Overcast
7:55 AM 51.8 °F - 41.0 °F 67% 29.97 in 10.0 mi North 15.0 mph 21.9 mph N/A   Overcast
8:15 AM 51.8 °F - 41.0 °F 67% 29.98 in 10.0 mi NNW 16.1 mph 25.3 mph N/A   Overcast
8:35 AM 50.0 °F - 41.0 °F 71% 30.00 in 10.0 mi North 15.0 mph 18.4 mph N/A   Overcast
8:55 AM 50.0 °F - 39.2 °F 66% 30.00 in 10.0 mi North 17.3 mph 23.0 mph N/A   Overcast
9:15 AM 48.2 °F - 39.2 °F 71% 30.02 in 10.0 mi North 13.8 mph 21.9 mph N/A   Overcast
9:35 AM 46.4 °F 39.5 °F 39.2 °F 76% 30.03 in 10.0 mi North 17.3 mph 26.5 mph N/A   Overcast
9:55 AM 46.4 °F 39.2 °F 37.4 °F 71% 30.04 in 10.0 mi North 18.4 mph 27.6 mph N/A   Overcast
10:15 AM 44.6 °F 36.4 °F 37.4 °F 76% 30.05 in 10.0 mi North 20.7 mph 26.5 mph N/A   Overcast
10:35 AM 44.6 °F 36.9 °F 37.4 °F 76% 30.06 in 10.0 mi North 18.4 mph 25.3 mph N/A   Overcast
10:55 AM 44.6 °F 36.9 °F 37.4 °F 76% 30.07 in 10.0 mi North 18.4 mph 25.3 mph N/A   Overcast
11:15 AM 44.6 °F 37.2 °F 37.4 °F 76% 30.07 in 10.0 mi North 17.3 mph 25.3 mph N/A   Overcast
11:35 AM 44.6 °F 36.9 °F 37.4 °F 76% 30.08 in 10.0 mi NNW 18.4 mph 25.3 mph N/A   Overcast
11:55 AM 46.4 °F 39.0 °F 37.4 °F 71% 30.07 in 10.0 mi North 19.6 mph 25.3 mph N/A   Overcast
12:15 PM 46.4 °F 39.2 °F 37.4 °F 71% 30.07 in 10.0 mi North 18.4 mph 25.3 mph N/A   Overcast
12:35 PM 46.4 °F 39.8 °F 37.4 °F 71% 30.08 in 10.0 mi NNW 16.1 mph 25.3 mph N/A   Overcast
12:55 PM 46.4 °F 40.1 °F 37.4 °F 71% 30.07 in 10.0 mi North 15.0 mph 20.7 mph N/A   Overcast
1:15 PM 46.4 °F 39.8 °F 37.4 °F 71% 30.07 in 10.0 mi NNW 16.1 mph 26.5 mph N/A   Overcast
1:35 PM 48.2 °F - 37.4 °F 66% 30.06 in 10.0 mi North 17.3 mph - N/A   Overcast
1:55 PM 48.2 °F - 35.6 °F 62% 30.07 in 10.0 mi North 17.3 mph 24.2 mph N/A   Overcast
2:15 PM 48.2 °F - 35.6 °F 62% 30.07 in 10.0 mi North 13.8 mph 18.4 mph N/A   Overcast
2:35 PM 48.2 °F - 35.6 °F 62% 30.07 in 10.0 mi North 16.1 mph 25.3 mph N/A   Overcast
2:55 PM 48.2 °F - 35.6 °F 62% 30.06 in 10.0 mi NNW 19.6 mph 23.0 mph N/A   Overcast
3:15 PM 48.2 °F - 35.6 °F 62% 30.07 in 10.0 mi NNW 16.1 mph - N/A   Overcast
3:35 PM 48.2 °F - 35.6 °F 62% 30.06 in 10.0 mi North 13.8 mph - N/A   Overcast
3:55 PM 48.2 °F - 35.6 °F 62% 30.06 in 10.0 mi NNW 13.8 mph 18.4 mph N/A   Overcast
4:15 PM 48.2 °F - 35.6 °F 62% 30.06 in 10.0 mi NNW 15.0 mph 21.9 mph N/A   Overcast
4:35 PM 48.2 °F - 35.6 °F 62% 30.05 in 10.0 mi North 11.5 mph - N/A   Overcast
4:55 PM 48.2 °F - 35.6 °F 62% 30.05 in 10.0 mi NNW 15.0 mph - N/A   Overcast
5:15 PM 46.4 °F 40.7 °F 35.6 °F 66% 30.05 in 10.0 mi North 12.7 mph 18.4 mph N/A   Overcast
5:35 PM 48.2 °F - 35.6 °F 62% 30.05 in 10.0 mi North 15.0 mph 20.7 mph N/A   Overcast
5:55 PM 48.2 °F - 35.6 °F 62% 30.05 in 10.0 mi North 15.0 mph - N/A   Overcast
6:15 PM 48.2 °F - 35.6 °F 62% 30.05 in 10.0 mi North 12.7 mph - N/A   Overcast
6:35 PM 48.2 °F - 35.6 °F 62% 30.05 in 10.0 mi North 12.7 mph 23.0 mph N/A   Overcast
6:55 PM 48.2 °F - 35.6 °F 62% 30.05 in 10.0 mi North 15.0 mph 20.7 mph N/A   Overcast
7:15 PM 46.4 °F 40.1 °F 33.8 °F 62% 30.06 in 10.0 mi North 15.0 mph 23.0 mph N/A   Overcast
7:35 PM 46.4 °F 39.8 °F 33.8 °F 62% 30.07 in 10.0 mi North 16.1 mph 21.9 mph N/A   Overcast
7:55 PM 46.4 °F 41.5 °F 33.8 °F 62% 30.07 in 10.0 mi North 10.4 mph 18.4 mph N/A   Overcast
8:15 PM 46.4 °F 40.4 °F 33.8 °F 62% 30.08 in 10.0 mi North 13.8 mph 18.4 mph N/A   Overcast
8:35 PM 46.4 °F 40.1 °F 33.8 °F 62% 30.10 in 10.0 mi North 15.0 mph - N/A   Overcast
8:55 PM 46.4 °F 40.7 °F 33.8 °F 62% 30.11 in 10.0 mi North 12.7 mph 20.7 mph N/A   Overcast
9:15 PM 46.4 °F 39.8 °F 33.8 °F 62% 30.13 in 10.0 mi North 16.1 mph 21.9 mph N/A   Overcast
9:35 PM 44.6 °F 37.2 °F 33.8 °F 66% 30.15 in 10.0 mi North 17.3 mph 25.3 mph N/A   Overcast
9:55 PM 44.6 °F 38.4 °F 35.6 °F 71% 30.16 in 10.0 mi North 12.7 mph 18.4 mph N/A Rain Light Rain
10:15 PM 44.6 °F 38.4 °F 33.8 °F 66% 30.17 in 10.0 mi North 12.7 mph 20.7 mph N/A   Overcast
10:35 PM 44.6 °F 37.4 °F 33.8 °F 66% 30.19 in 10.0 mi North 16.1 mph 25.3 mph N/A   Overcast
10:55 PM 44.6 °F 37.2 °F 33.8 °F 66% 30.20 in 10.0 mi North 17.3 mph 26.5 mph N/A   Overcast
11:15 PM 42.8 °F 34.5 °F 32.0 °F 66% 30.21 in 10.0 mi North 18.4 mph 27.6 mph N/A   Overcast
11:35 PM 41.0 °F 32.5 °F 32.0 °F 70% 30.21 in 10.0 mi North 17.3 mph 27.6 mph N/A   Overcast
11:55 PM 41.0 °F 33.9 °F 32.0 °F 70% 30.21 in 10.0 mi North 12.7 mph 21.9 mph N/A   Overcast